Cloud_Cover
100 100 100 100 100 100 100 100 100 100 100 95 100 100 100 86 65 46 22 3 0 0 0 0 10 1 0 0 0 0 0 0 0 0 0 0 0 0 0 0 0 0 0
100 100 100 100 100 100 100 100 100 100 100 100 100 100 100 90 17 5 3 2 0 0 0 0 16 1 5 0 3 5 4 4 0 0 17 0 0 3 5 2 0 0 0
100 100 100 100 100 100 100 100 100 100 100 100 63 16 5 5 5 2 0 0 0 0 0 0 0 4 77 100 25 87 88 7 5 2 7 14 0 0 0 4 5 0 0
100 100 100 100 100 100 100 100 100 98 72 30 20 5 5 4 0 0 0 0 0 0 0 0 76 51 81 84 83 75 80 5 5 5 46 4 0 0 0 0 2 5 1
100 100 100 100 100 82 70 19 10 6 33 5 5 5 4 0 0 0 0 0 0 0 0 2 12 98 96 64 5 5 5 24 70 71 5 5 5 2 1 4 4 5 5
100 82 59 9 8 16 5 5 5 6 1 2 11 5 0 0 0 0 0 0 0 0 0 1 4 5 23 70 44 8 8 5 5 5 5 17 2 2 4 4 5 5 5
12 20 5 5 5 5 3 0 0 0 0 5 5 5 0 0 0 0 0 0 0 0 0 0 0 1 2 2 18 27 36 5 5 72 99 77 0 0 1 5 4 1 0
5 5 5 4 3 3 5 0 0 0 4 5 5 3 0 0 0 0 1 0 0 0 0 0 0 0 0 0 0 0 0 0 4 5 5 5 2 5 5 5 16 35 5
5 2 0 2 1 0 1 5 3 0 0 0 0 0 0 0 5 4 5 1 4 5 17 41 7 5 1 0 2 2 0 0 0 0 4 5 5 46 95 54 5 5 5
5 5 6 25 5 5 27 50 7 5 5 5 5 3 5 5 5 5 5 5 5 90 100 100 97 5 21 99 100 58 3 1 0 1 4 5 5 37 92 12 5 6 11
5 6 8 69 100 66 96 66 5 85 5 5 5 5 5 5 5 5 5 5 5 24 99 100 94 40 27 10 5 0 0 0 0 0 2 5 5 5 87 81 5 5 5
22 100 11 34 74 86 97 5 22 36 61 5 7 63 6 5 5 28 5 5 5 5 5 6 58 36 99 99 21 4 1 0 0 0 5 5 5 5 5 5 5 5 5
85 16 65 84 100 46 37 99 79 79 87 12 34 5 17 76 29 5 5 6 83 75 38 85 100 100 100 100 95 32 0 0 0 0 4 5 5 1 0 4 5 10 20
100 100 100 100 100 6 98 20 94 100 16 84 74 5 5 5 5 5 5 37 80 80 100 100 100 100 100 37 5 0 0 0 0 0 3 5 5 5 5 13 70 99 100
100 100 100 100 100 92 93 6 91 95 89 52 46 13 56 87 97 36 69 57 96 78 17 79 77 23 5 1 0 0 0 0 0 2 3 5 11 98 99 100 100 100 100
100 100 90 100 100 73 89 93 80 76 5 47 74 59 98 76 83 97 100 100 99 100 76 61 4 3 0 0 0 0 0 0 0 3 5 5 5 95 97 62 86 97 97
100 89 100 100 100 100 86 99 100 97 96 24 49 98 24 73 100 100 100 100 100 27 5 0 0 0 0 0 0 0 0 0 0 0 5 5 5 5 5 5 5 10 7
100 91 27 64 73 90 100 100 31 5 5 5 5 40 96 100 100 99 100 90 1 2 5 0 0 0 0 0 0 0 0 0 0 0 5 4 5 5 5 82 76 6 5
8 38 29 99 99 94 72 5 42 38 26 9 37 76 100 100 100 100 58 0 0 0 0 5 5 0 1 0 0 0 0 0 2 1 0 0 0 3 15 19 5 5 0
49 68 12 45 100 66 5 5 5 5 5 21 58 97 100 100 99 21 0 0 0 0 0 5 5 1 4 1 5 5 4 3 0 0 0 4 5 5 5 5 0 0 4
82 98 100 100 100 55 30 46 5 8 89 98 100 100 100 41 3 0 0 0 0 4 5 5 4 5 5 4 5 1 5 5 5 3 5 5 5 5 5 4 0 0 2
100 100 100 100 100 92 99 93 42 95 99 100 100 67 12 5 5 5 3 0 2 5 5 5 5 5 5 5 3 37 46 94 88 5 29 26 5 5 5 5 4 5 5
99 100 100 95 84 100 100 97 93 91 97 68 89 5 5 11 5 5 0 0 3 5 5 5 5 5 5 5 9 79 92 100 97 22 65 61 5 5 5 2 25 11 22
100 100 100 100 100 100 84 91 52 25 5 52 50 5 5 16 5 0 0 0 3 5 5 5 2 5 5 5 40 94 98 86 42 5 7 89 5 5 5 20 98 100 99
100 100 100 100 78 94 81 7 2 5 5 5 5 5 5 5 0 0 0 2 2 4 4 5 2 4 5 5 5 9 6 93 94 31 36 66 5 6 5 5 32 100 100
100 100 100 78 63 23 31 5 3 5 5 5 5 5 5 5 0 0 5 5 5 5 5 5 5 0 4 5 5 5 5 100 100 83 29 42 11 94 83 6 27 100 98